Leeming, United Kingdom

1:27 AM BST on April 24, 2017 (GMT +0100)
Leeming Air Base

Weather History for EGXE - November, 2013

Change the Weather History Date:

Friday, November 8, 2013

  Actual Average (EGNV) Record (EGNV)
Temperature  
Mean Temperature 42 °F -  
Max Temperature 46 °F 47 °F 59 °F (2007)
Min Temperature 37 °F 36 °F 32 °F (1996)
Degree Days  
Heating Degree Days 22    
Moisture  
Dew Point 40 °F    
Average Humidity 88    
Maximum Humidity 100    
Minimum Humidity 72    
Precipitation  
Precipitation 0.00 in 0.07 in - ()
Sea Level Pressure  
Sea Level Pressure 29.58 in    
Wind  
Wind Speed 7 mph ()    
Max Wind Speed 13 mph    
Max Gust Speed -    
Visibility 7.4 miles    
Events Rain    
Averages and records for this station are not official NWS values.
T = Trace of Precipitation, MM = Missing Value Source: Averaged Metar Reports

Daily Weather History Graph

Daily Weather History Graph

Search for Another Location

Airport or City:

Trip Planner

Search our weather history database for the weather conditions in past years. The results will help you decide how hot, cold, wet, or windy it might be!

Date:

Astronomy

Nov. 08, 2013 Rise Set
Actual Time 7:21 AM GMT 4:17 PM GMT
Civil Twilight 6:42 AM GMT 4:56 PM GMT
Nautical Twilight 5:59 AM GMT 5:39 PM GMT
Astronomical Twilight 5:18 AM GMT 6:20 PM GMT
Moon 12:09 PM GMT (11/8) 9:21 PM GMT (11/8)
Length of Visible Light 10h 13m
Length of Day
8h 55m
Waxing Crescent, 30% of the Moon is Illuminated
Nov 8
Waxing Crescent
Nov 10
First Quarter
Nov 17
Full
Nov 25
Last Quarter
Dec 3
New

Hourly Weather History & Observations

Time (GMT) Temp. Windchill Dew Point Humidity Pressure Visibility Wind Dir Wind Speed Gust Speed Precip Events Conditions
12:00 AM 45 °F - 39 °F 72% 29.60 in 12 mi South 12.7 mph - -  
12:50 AM 42.8 °F 40.1 °F 39.2 °F 87% 29.59 in 6.2 mi SSW 4.6 mph - N/A   Unknown
1:50 AM 44.6 °F 38.8 °F 39.2 °F 81% 29.59 in 6.2 mi SSW 11.5 mph - N/A   Partly Cloudy
2:50 AM 42.8 °F 37.5 °F 39.2 °F 87% 29.59 in 6.2 mi South 9.2 mph - N/A   Partly Cloudy
3:00 AM 43 °F - 39 °F 81% 29.60 in 10 mi South 9.2 mph - -   Scattered Clouds
3:50 AM 42.8 °F 38.0 °F 39.2 °F 87% 29.59 in 6.2 mi SSE 8.1 mph - N/A   Scattered Clouds
4:50 AM 42.8 °F 38.6 °F 39.2 °F 87% 29.59 in 6.2 mi SE 6.9 mph - N/A Rain Light Rain Showers
5:50 AM 42.8 °F 38.0 °F 39.2 °F 87% 29.59 in 6.2 mi SSE 8.1 mph - N/A Rain Light Rain Showers
6:00 AM 42 °F - 39 °F 85% 29.60 in 9 mi SSE 8.1 mph - - Rain Light Rain Showers
6:50 AM 41.0 °F 36.4 °F 39.2 °F 93% 29.59 in 6.2 mi SSE 6.9 mph - N/A Rain Light Rain Showers
7:50 AM 42.8 °F 38.0 °F 39.2 °F 87% 29.59 in 6.2 mi South 8.1 mph - N/A   Scattered Clouds
8:50 AM 41.0 °F - 39.2 °F 93% 29.59 in 6.2 mi ESE 2.3 mph - N/A Rain Light Rain Showers
9:00 AM 42 °F - 39 °F 85% 29.62 in 12 mi ESE 2.3 mph - - Rain Light Rain Showers
9:50 AM 41.0 °F 35.8 °F 39.2 °F 93% 29.59 in 6.2 mi SE 8.1 mph - N/A   Mostly Cloudy
10:50 AM 42.8 °F 37.5 °F 39.2 °F 87% 29.59 in 6.2 mi SSE 9.2 mph - N/A   Mostly Cloudy
11:50 AM 44.6 °F 40.7 °F 41.0 °F 87% 29.59 in 6.2 mi SSE 6.9 mph - N/A   Mostly Cloudy
12:00 PM 44 °F - 41 °F 83% 29.60 in 19 mi SSE 6.9 mph - -   Partly Cloudy
12:50 PM 44.6 °F 40.7 °F 41.0 °F 87% 29.56 in 6.2 mi SSE 6.9 mph - N/A   Overcast
1:50 PM 46.4 °F 42.4 °F 42.8 °F 87% 29.56 in 6.2 mi SSE 8.1 mph - N/A   Partly Cloudy
2:50 PM 44.6 °F 42.2 °F 41.0 °F 87% 29.56 in 6.2 mi SSE 4.6 mph - N/A   Mostly Cloudy
3:00 PM 45 °F - 42 °F 84% 29.57 in 11 mi SSE 4.6 mph - -   Scattered Clouds
3:50 PM 46.4 °F 43.5 °F 41.0 °F 81% 29.53 in 6.2 mi SE 5.8 mph - N/A   Mostly Cloudy
4:50 PM 44.6 °F 42.2 °F 41.0 °F 87% 29.53 in 6.2 mi South 4.6 mph - N/A   Overcast
5:50 PM 42.8 °F 39.3 °F 41.0 °F 93% 29.53 in 6.2 mi SSW 5.8 mph - N/A   Mostly Cloudy
6:00 PM 43 °F - 40 °F 86% 29.56 in 9 mi SSW 5.8 mph - -   Mostly Cloudy
6:50 PM 42.8 °F 41.1 °F 39.2 °F 87% 29.56 in 5.6 mi South 3.5 mph - N/A Rain Light Rain Showers
7:50 PM 42.8 °F 41.1 °F 39.2 °F 87% 29.53 in 6.2 mi SSE 3.5 mph - N/A   Mostly Cloudy
8:50 PM 39.2 °F 37.0 °F 39.2 °F 100% 29.56 in 6.2 mi SSW 3.5 mph - N/A   Mostly Cloudy
9:00 PM 40 °F - 39 °F 93% 29.57 in 6 mi SSW 3.5 mph - -   Mist
9:50 PM 39.2 °F 33.6 °F 37.4 °F 93% 29.56 in 6.2 mi West 8.1 mph - N/A   Scattered Clouds
10:50 PM 39.2 °F 37.0 °F 37.4 °F 93% 29.56 in 6.2 mi WNW 3.5 mph - N/A   Mostly Cloudy
11:50 PM 37.4 °F - 35.6 °F 93% 29.56 in 6.2 mi SW 1.2 mph - N/A   Overcast